Regional Weather Roundup
Issued by NWS Cleveland, OH

Home | Current Version | Previous Version | Graphics & Text | Print | Product List | Glossary On
Versions: 1 2 3 4 5 6 7 8 9 10 11 12 13 14 15 16 17 18 19 20 21 22 23 24 25 26 27 28 29 30 31 32 33 34 35 36 37 38 39 40 41 42 43 44 45 46 47 48 49 50
000
ASUS41 KCLE 282210
RWRCLE
OHIO REGIONAL WEATHER ROUNDUP
NATIONAL WEATHER SERVICE WILMINGTON, OH
600 PM EDT TUE MAR 28 2017

NOTE: "FAIR" INDICATES FEW OR NO CLOUDS BELOW 12,000 FEET WITH NO
SIGNIFICANT WEATHER AND/OR OBSTRUCTIONS TO VISIBILITY.

OHZ001>008-015>018-024>027-034-035-043-044-282300-
   NORTHWEST OHIO

CITY           SKY/WX    TMP DP  RH WIND       PRES   REMARKS
DEFIANCE       CLOUDY    49  40  71 N8        30.10R
FINDLAY        CLOUDY    49  41  74 NE9       30.07R
TOLEDO EXPRESS CLOUDY    47  40  76 N8        30.09R
TOLEDO EXEC    CLOUDY    49  41  74 NE5       30.10R
LIMA           CLOUDY    49  45  86 NE7       30.07R
$$

OHZ009>014-019>023-028>033-038-089-282300-
   NORTHEAST OHIO

CITY           SKY/WX    TMP DP  RH WIND       PRES   REMARKS
CLE-HOPKINS    CLOUDY    44  37  76 N10       30.10R
CLE-LAKEFRONT  CLOUDY    40  37  89 W6        30.08R
CUY CO. ARPT   CLOUDY    43  41  93 NW9       30.07R
LORAIN-ELYRIA  CLOUDY    43  37  79 N9        30.09R
ASHTABULA      CLOUDY    44  43  96 NW5       30.05R FOG
AKRON-CANTON   CLOUDY    47  40  76 N9        30.03R
WOOSTER        CLOUDY    45  40  82 N12       30.06R
MANSFIELD      CLOUDY    43  41  93 N10       30.06R
YOUNGSTOWN     CLOUDY    46  41  82 NW13      30.03R
$$

OHZ042-051>053-060>062-070>072-077>081-282300-
  SOUTHWEST OHIO

CITY           SKY/WX    TMP DP  RH WIND       PRES   REMARKS
CINC-COVINGTON CLOUDY    57  50  77 N9        30.04R
CINC-LUNKEN    CLOUDY    58  52  80 N9        30.05R
HAMILTON       CLOUDY    57  51  80 N6        30.06R
DAYTON         CLOUDY    53  47  79 N8        30.06R
WRIGHT-PAT AFB CLOUDY    55  51  86 N10       30.05R
DAYTON GENERAL CLOUDY    55  48  77 N9        30.04R
WILMINGTON     CLOUDY    54  49  83 N9        30.03S
$$

OHZ036-037-039>041-045>050-054>059-063>069-073>076-082>088-282300-
  CENTRAL AND SOUTHEAST OHIO

CITY           SKY/WX    TMP DP  RH WIND       PRES   REMARKS
COLUMBUS       PTSUNNY   56  47  71 N12       30.03R
OSU AIRPORT    CLOUDY    52  46  80 N10       30.04R
BOLTON FIELD   PTSUNNY   55  46  71 N14       30.04R
RICKENBACK AFB FAIR      58  48  69 N13G18    30.03R
NEWARK         CLOUDY    56  46  69 N8        30.02R
MARION         CLOUDY    47  41  80 NE14      30.08R
LANCASTER      CLOUDY    60  49  66 N8        30.02R
ZANESVILLE     PTSUNNY   58  47  66 N9        30.01R
NEW PHILLY     CLOUDY    50  44  80 NW10      30.03R
$$




USA.gov is the U.S. government's official web portal to all federal, state and local government web resources and services.